STARLINK-31890, 59785

Orbit data source: Space-Track

STARLINK-31890, 59785 is a payload satellite owned by SpaceX/Seattle (US) in LEO that was launched on Sat, 18 May 2024 UTC via an FALCON 9 launch vehicle from the Air Force Eastern Test Range (AFETR). Payload-class satellites include a variety of spacecraft equipped with specific instruments for various scientific and technological missions. These include communications satellites like Starlink; space stations such as the ISS; scientific satellites like the Hubble; Earth observation satellites from companies like Planet Labs, Umbra, and HawkEye 360; GPS; miniature CubeSats for education and research; and military/defense satellites.

Loading next visibility...
Identifier
59785, 2024-093D
Orbit
LEO
Last TLE update
23 hours ago
Origin
Manufacturer
SpaceX/Seattle
Mission
Operational spacecraft
Bus & Motor
STARLINK V2M, Unknown motor
Mass
730 kg wet, ~700 kg dry
Launch date (UTC)
2024-05-18 (1 year ago)
Launch vehicle
FALCON 9
Launch site
Air Force Eastern Test Range (AFETR)
Object type
Payload
Rocket body
Debris
Shape & HBR
Unknown
Radar Cross Section
Large (>1 m²)

Expand to show TLE details & history

TLE from 23 hours ago
0 STARLINK-31890
1 59785U 24093D   25193.51580030 -.00000813  00000-0 -20020-4 0  9996
2 59785  43.0034 121.8355 0001273 277.9623  82.1084 15.27572393 66003
Epoch: 2025-07-12T12:22Z
TLE epoch observation values (Epoch: 2025-07-12T12:22:45.145Z)
Latitude
-0.00005°
Longitude
5.49508°
Altitude
482.728 km
Speed
7.626 km/s
True Right ascension
08h 07m 20s
True Declination
0° 00' 00"
Sunlit
Object was in daylight at epoch
Visualization orbit readout
Latitude
28.20467°
Longitude
145.30312°
Altitude
484.111 km
Speed
7.627 km/s
Apparent Right ascension
14h 48m 58s
Apparent Declination
-6° 15' 11"
Sunlit
Object is in full shadow
Visualization observer readout
Local Sidereal Time
23:22:25
Azimuth
291.836° WNW
Elevation
-32.893°
Doppler factor
1
Orbital elements
Apogee altitude
485.89 km
Perigee altitude
484.143 km
Semi-major axis
6,863.153 km
Eccentricity
0.00013
Inclination
43.0034°
RAAN
121.8355°
Arg. of periapsis
277.9623°
True anomaly
Unknown
Mean anomaly
82.1084°
Eccentric anomaly
Unknown
Mean motion
3.81731 °/min
Orbital period
94.31 mins
BSTAR
-0.00002002
Loading maneuver chart data...
Loading SW <> Apogee altitude chart data...
Loading historical data...
Loading historical data...
Loading historical data...
Loading historical data...
Loading historical data...
Loading historical data...
Loading historical data...

STARLINK-31890 Visibility forecast

Observer location: undefined°, undefined°

Span
Click to sort rows by Start time (UTC) header in descending order
Start Az.
Max El. time (UTC)
Max El. Az.
Max El.
End time (UTC)
End Az.
4 mins2025-07-13 21:31:35.026Z181.658° SSW2025-07-13 21:33:35.026Z142.096° SSE18.756°2025-07-13 21:35:35.026Z104.348° ESE
6 mins2025-07-13 23:09:35.026Z246.258° WSW2025-07-13 23:11:35.026Z233.625° WSW42.182°2025-07-13 23:15:35.026Z72.793° E
6 mins2025-07-14 00:48:35.026Z285.088° WNW2025-07-14 00:51:35.026Z22.579° NE37.024°2025-07-14 00:54:35.026Z74.243° E
5 mins2025-07-14 02:28:35.026Z293.886° NW2025-07-14 02:30:35.026Z53.098° ENE43.646°2025-07-14 02:33:35.026Z101.166° ESE
4 mins2025-07-14 04:07:35.026Z253.103° W2025-07-14 04:09:35.026Z197.167° SSW25.838°2025-07-14 04:11:35.026Z157.191° SSE
|